Regional Weather Roundup
Issued by NWS

Home | Current Version | Previous Version | Graphics & Text | Print | Product List | Glossary On
Versions: 1 2 3 4 5 6 7 8 9 10 11 12 13 14 15 16 17 18 19 20 21 22 23 24 25 26 27 28 29 30 31 32 33 34 35 36 37 38 39 40 41 42 43 44 45 46 47 48 49 50
000
ASUS43 KTOP 112308
RWRKS

WEATHER ROUNDUP FOR KANSAS
NATIONAL WEATHER SERVICE GOODLAND KS
600 PM CDT FRI JUL 11 2014

NOTE:  "FAIR" INDICATES FEW OR NO CLOUDS BELOW 12,000 FEET WITH NO
SIGNIFICANT WEATHER AND/OR OBSTRUCTIONS TO VISIBILITY.

KSZ001>006-013>018-027>032-041>047-120000-
NORTHWEST KANSAS

CITY           SKY/WX    TMP DP  RH WIND       PRES   REMARKS
GOODLAND       SUNNY     96  52  22 S24G31    29.94F
HAYS           SUNNY     95  55  26 S23G32    29.95F
HILL CITY      SUNNY     99  55  23 S18G26    29.93F HX  97
RUSSELL        SUNNY     94  63  35 S24G30    29.95F HX  95
$$

KSZ061>065-074>080-084>089-120000-
SOUTHWEST KANSAS

CITY           SKY/WX    TMP DP  RH WIND       PRES   REMARKS
DODGE CITY     SUNNY     92  54  27 S23G32    30.00F
ELKHART          N/A     94  52  24 S17         N/A
GARDEN CITY    SUNNY     94  54  25 S21G29    29.98F
GREAT BEND     SUNNY     93  61  33 S22       29.96F
LIBERAL        SUNNY     95  52  23 S15G26    30.02F
PRATT          SUNNY     91  57  31 S16G23    30.02S
$$

KSZ066>073-081>083-090>101-120000-
SOUTHEAST KANSAS

CITY           SKY/WX    TMP DP  RH WIND       PRES   REMARKS
CHANUTE        SUNNY     90  70  51 S13       30.04F HX  95
COFFEYVILLE    SUNNY     90  71  53 S16       30.03F HX  96
HUTCHINSON     SUNNY     94  63  35 S20       29.99F HX  95
MEDICINE LODGE   N/A     94  61  33 S15G24    29.98F
NEWTON         MOSUNNY   93  64  38 S20G25    30.04S HX  95
PARSONS        SUNNY     90  70  51 S10       30.05F HX  95
WICHITA INTL   PTSUNNY   92  64  39 S20       30.00F
WICHITA JABRA  MOSUNNY   90  66  45 S16G26    30.01S
WICHITA MCCONL MOSUNNY   91  64  40 S17G24    30.01F
WINFIELD       SUNNY     90  67  46 S15       30.03F
$$

KSZ007>012-019>026-033>040-048>060-102>105-120000-
NORTHEAST KANSAS

CITY           SKY/WX    TMP DP  RH WIND       PRES   REMARKS
CONCORDIA      SUNNY     94  63  35 S22G29    29.94F HX  95
EMPORIA        MOSUNNY   91  69  48 S18       30.01S HX  96
LAWRENCE       MOSUNNY   90  76  63 S7        29.99F HX 101
MANHATTAN      SUNNY     97  65  34 SW16      29.95F HX  99
MARYSVILLE     SUNNY     91  72  52 S13G18    29.95S HX  98
OLATHE IND     MOSUNNY   88  74  63 S10       30.02F HX  96
OLATHE EXE     MOSUNNY   87  74  64 S8        30.01F HX  95
SALINA         MOSUNNY   97  66  36 S17G28    29.96F HX 100
TOPEKA BILLARD MOSUNNY   94  73  50 S12       29.98F HX 103
TOPEKA FORBES  MOSUNNY   93  73  52 S10       29.99F HX 102
$$



USA.gov is the U.S. government's official web portal to all federal, state and local government web resources and services.